Satellite-Ground Cal/Val Region Overpasses Predictions

Prediction of Satellite NPP Overpassing Cal/Val Region: PacNW

Region Location: (Latitude: 10.00, Longitude: 139.50) to (Latitude: 22.70, Longitude: 165.60).

Table of predicted overpasses for the next 14.0 days since TLE Epoch: 9/6/2014
Interval Starting Time Starting Location Ending Time Ending Location
1 09/07/2014 03:51:07 ( 10.00, 143.98) 09/07/2014 03:54:43 ( 22.68, 140.95)
2 09/07/2014 14:42:42 ( 18.54, 165.59) 09/07/2014 14:45:07 ( 10.02, 163.59)
3 09/07/2014 16:23:02 ( 22.65, 141.23) 09/07/2014 16:25:02 ( 15.61, 139.51)
4 09/08/2014 03:32:08 ( 10.04, 148.72) 09/08/2014 03:35:43 ( 22.66, 145.71)
5 09/08/2014 16:04:02 ( 22.66, 145.99) 09/08/2014 16:07:37 ( 10.04, 142.97)
6 09/09/2014 03:13:08 ( 10.03, 153.48) 09/09/2014 03:16:43 ( 22.64, 150.47)
7 09/09/2014 15:45:01 ( 22.68, 150.75) 09/09/2014 15:48:37 ( 10.00, 147.72)
8 09/10/2014 02:54:07 ( 10.01, 158.24) 09/10/2014 02:57:43 ( 22.68, 155.22)
9 09/10/2014 15:26:01 ( 22.70, 155.51) 09/10/2014 15:29:37 ( 10.02, 152.48)
10 09/11/2014 02:35:08 ( 10.05, 162.99) 09/11/2014 02:38:43 ( 22.67, 159.98)
11 09/11/2014 15:07:01 ( 22.65, 160.25) 09/11/2014 15:10:36 ( 10.03, 157.24)
12 09/12/2014 02:18:43 ( 19.19, 165.59) 09/12/2014 02:19:42 ( 22.65, 164.74)
13 09/12/2014 03:57:37 ( 10.03, 142.38) 09/12/2014 04:01:02 ( 22.07, 139.51)
14 09/12/2014 14:48:01 ( 22.67, 165.01) 09/12/2014 14:51:36 ( 10.05, 162.00)
15 09/12/2014 16:29:31 ( 22.67, 139.64) 09/12/2014 16:29:40 ( 22.14, 139.51)
16 09/13/2014 03:38:37 ( 10.02, 147.13) 09/13/2014 03:42:13 ( 22.70, 144.11)
17 09/13/2014 16:10:30 ( 22.68, 144.40) 09/13/2014 16:14:06 ( 10.00, 141.37)
18 09/14/2014 03:19:36 ( 10.00, 151.89) 09/14/2014 03:23:12 ( 22.68, 148.87)
19 09/14/2014 15:51:30 ( 22.70, 149.16) 09/14/2014 15:55:06 ( 10.02, 146.13)
20 09/15/2014 03:00:37 ( 10.05, 156.64) 09/15/2014 03:04:12 ( 22.67, 153.63)
21 09/15/2014 15:32:30 ( 22.65, 153.90) 09/15/2014 15:36:05 ( 10.03, 150.89)
22 09/16/2014 02:41:36 ( 10.04, 161.40) 09/16/2014 02:45:11 ( 22.66, 158.39)
23
